CTV8504 WIMM-OEMA

Flight info

Callsign CTV8504
Flight time 8h 4m
Altitude 34000
Route DUDEN1A DUDEN DCT BULVA M300 DOLPI/N0477F360 M300 LOTAV N569 TOKRA/N0433F280 Y511 ITRUX/N0471F360 Y511 ELONU ELONU1G
Aircraft A339/H-SADE1E2E3GHIJ3J5M1P2RWXY/LB2D1

Departure

Time 2026-04-24 12:20
Airport Kualanamu International Airport (WIMM)

Arrival

Time 2026-04-24 20:24
Airport Prince Mohammad Bin Abdulaziz Airport (OEMA)
Time Latitude Longitude Altitude Speed Heading
2026-04-24 11:30 3.63857 98.87860 46 ft 0 kts 226°
2026-04-24 12:04 3.63857 98.87861 46 ft 2 kts 226°
2026-04-24 12:04 3.63875 98.87879 44 ft 4 kts 235°
2026-04-24 12:05 3.63889 98.87901 43 ft 4 kts 246°
2026-04-24 12:05 3.63899 98.87926 46 ft 4 kts 256°
2026-04-24 12:05 3.63902 98.87937 44 ft 0 kts 257°
2026-04-24 12:08 3.63900 98.87931 46 ft 1 kts 254°
2026-04-24 12:08 3.63904 98.87943 43 ft 2 kts 272°
2026-04-24 12:08 3.63905 98.87952 44 ft 0 kts 307°
2026-04-24 12:08 3.63902 98.87958 45 ft 1 kts 321°
2026-04-24 12:09 3.63895 98.87964 46 ft 2 kts 327°
2026-04-24 12:09 3.63885 98.87970 43 ft 0 kts 325°
2026-04-24 12:11 3.63900 98.87964 46 ft 6 kts 337°
2026-04-24 12:12 3.63957 98.87996 46 ft 14 kts 41°
2026-04-24 12:12 3.64034 98.88069 46 ft 15 kts 46°
2026-04-24 12:12 3.64107 98.88145 46 ft 15 kts 45°
2026-04-24 12:12 3.64156 98.88134 46 ft 6 kts 309°
2026-04-24 12:13 3.64186 98.88098 46 ft 7 kts 309°
2026-04-24 12:13 3.64226 98.88053 46 ft 10 kts 313°
2026-04-24 12:13 3.64282 98.87991 46 ft 15 kts 306°
2026-04-24 12:13 3.64246 98.87896 45 ft 16 kts 227°
2026-04-24 12:14 3.64167 98.87814 45 ft 17 kts 225°
2026-04-24 12:14 3.64051 98.87701 45 ft 32 kts 223°
2026-04-24 12:14 3.63881 98.87535 45 ft 33 kts 225°
2026-04-24 12:14 3.63721 98.87377 46 ft 32 kts 226°
2026-04-24 12:15 3.63610 98.87220 45 ft 19 kts 271°
2026-04-24 12:15 3.63637 98.87171 45 ft 2 kts 294°
2026-04-24 12:15 3.63613 98.87143 45 ft 8 kts 230°
2026-04-24 12:15 3.63550 98.87077 45 ft 16 kts 225°
2026-04-24 12:16 3.63464 98.86993 45 ft 18 kts 225°
2026-04-24 12:16 3.63351 98.86882 45 ft 31 kts 225°
2026-04-24 12:16 3.63174 98.86704 44 ft 37 kts 225°
2026-04-24 12:16 3.62994 98.86525 45 ft 35 kts 225°
2026-04-24 12:17 3.62824 98.86356 45 ft 33 kts 225°
2026-04-24 12:17 3.62652 98.86185 45 ft 36 kts 225°
2026-04-24 12:17 3.62505 98.86009 45 ft 28 kts 255°
2026-04-24 12:17 3.62516 98.85955 43 ft 0 kts 304°
2026-04-24 12:18 3.62524 98.85945 43 ft 6 kts 307°
2026-04-24 12:18 3.62585 98.85903 42 ft 12 kts 347°
2026-04-24 12:19 3.62713 98.85992 43 ft 40 kts 44°
2026-04-24 12:19 3.63046 98.86327 42 ft 102 kts 45°
2026-04-24 12:19 3.63707 98.86982 43 ft 161 kts 45°
2026-04-24 12:19 3.64596 98.87867 243 ft 189 kts 46°
2026-04-24 12:20 3.65518 98.88807 935 ft 185 kts 53°
2026-04-24 12:20 3.66118 98.89919 1700 ft 180 kts 73°
2026-04-24 12:20 3.66310 98.91172 2133 ft 192 kts 92°
2026-04-24 12:20 3.66043 98.92551 2446 ft 208 kts 110°
2026-04-24 12:21 3.65389 98.93777 2670 ft 225 kts 127°
2026-04-24 12:21 3.64247 98.94919 2901 ft 242 kts 144°
2026-04-24 12:21 3.62701 98.95715 3058 ft 260 kts 161°
2026-04-24 12:21 3.60892 98.96034 3447 ft 267 kts 179°
2026-04-24 12:22 3.59037 98.95815 3958 ft 271 kts 194°
2026-04-24 12:22 3.57289 98.95077 4450 ft 276 kts 211°
2026-04-24 12:22 3.55782 98.93874 4834 ft 280 kts 226°
2026-04-24 12:22 3.54629 98.92301 4973 ft 281 kts 242°
2026-04-24 12:23 3.53937 98.90469 5002 ft 282 kts 258°
2026-04-24 12:23 3.53763 98.88526 5002 ft 282 kts 274°
2026-04-24 12:23 3.54121 98.86601 5005 ft 281 kts 290°
2026-04-24 12:23 3.54982 98.84855 5008 ft 281 kts 306°
2026-04-24 12:24 3.56264 98.83392 5021 ft 279 kts 321°
2026-04-24 12:24 3.57856 98.82286 5033 ft 279 kts 334°
2026-04-24 12:24 3.59680 98.81663 5047 ft 278 kts 353°
2026-04-24 12:24 3.61603 98.81614 5074 ft 276 kts
2026-04-24 12:25 3.63526 98.81530 5026 ft 277 kts 351°
2026-04-24 12:25 3.65435 98.81206 5008 ft 278 kts 352°
2026-04-24 12:25 3.67304 98.80802 4996 ft 278 kts 348°
2026-04-24 12:25 3.69186 98.80345 5005 ft 278 kts 347°
2026-04-24 12:26 3.71055 98.79845 4997 ft 278 kts 351°
2026-04-24 12:26 3.72950 98.79504 5000 ft 278 kts 342°
2026-04-24 12:26 3.74701 98.78669 5000 ft 279 kts 331°
2026-04-24 12:26 3.76186 98.77411 5077 ft 282 kts 314°
2026-04-24 12:27 3.77616 98.76061 5573 ft 282 kts 323°
2026-04-24 12:27 3.78987 98.74658 6072 ft 284 kts 305°
2026-04-24 12:27 3.80093 98.73012 6590 ft 285 kts 304°
2026-04-24 12:27 3.81062 98.71264 7029 ft 289 kts 295°
2026-04-24 12:28 3.81857 98.69402 7501 ft 292 kts 292°
2026-04-24 12:28 3.82636 98.67517 7998 ft 294 kts 294°
2026-04-24 12:28 3.83461 98.65633 8477 ft 297 kts 296°
2026-04-24 12:28 3.84359 98.63769 8988 ft 299 kts 295°
2026-04-24 12:29 3.85189 98.61849 9473 ft 301 kts 295°
2026-04-24 12:29 3.86276 98.60052 9931 ft 303 kts 309°
2026-04-24 12:29 3.87573 98.58385 10328 ft 307 kts 300°
2026-04-24 12:29 3.88306 98.56385 10786 ft 308 kts 283°
2026-04-24 12:30 3.88913 98.54319 11224 ft 311 kts 289°
2026-04-24 12:30 3.89633 98.52269 11688 ft 313 kts 289°
2026-04-24 12:30 3.90361 98.50204 12149 ft 316 kts 289°
2026-04-24 12:30 3.91097 98.48124 12608 ft 318 kts 289°
2026-04-24 12:31 3.91840 98.46027 13073 ft 321 kts 289°
2026-04-24 12:31 3.92625 98.43928 13509 ft 323 kts 290°
2026-04-24 12:31 3.93420 98.41810 13928 ft 326 kts 290°
2026-04-24 12:31 3.94223 98.39677 14340 ft 328 kts 290°
2026-04-24 12:32 3.94758 98.38257 14609 ft 330 kts 290°
2026-04-24 12:32 3.95849 98.35371 15143 ft 333 kts 290°
2026-04-24 12:32 3.96665 98.33219 15530 ft 336 kts 290°
2026-04-24 12:32 3.97498 98.31028 15856 ft 338 kts 290°
2026-04-24 12:33 3.98341 98.28818 16275 ft 340 kts 290°
2026-04-24 12:33 3.99191 98.26592 16670 ft 343 kts 290°
2026-04-24 12:33 4.00045 98.24358 17058 ft 345 kts 290°
2026-04-24 12:33 4.00910 98.22104 17445 ft 348 kts 290°
2026-04-24 12:34 4.01784 98.19831 17830 ft 350 kts 290°
2026-04-24 12:34 4.02661 98.17552 18189 ft 353 kts 290°
2026-04-24 12:34 4.03260 98.15999 18431 ft 354 kts 290°
2026-04-24 12:34 4.04138 98.13725 18780 ft 355 kts 290°
2026-04-24 12:35 4.05032 98.11413 19134 ft 356 kts 290°
2026-04-24 12:35 4.05932 98.09093 19493 ft 358 kts 290°
2026-04-24 12:35 4.06837 98.06765 19834 ft 359 kts 290°
2026-04-24 12:35 4.07749 98.04425 20185 ft 361 kts 290°
2026-04-24 12:36 4.08664 98.02078 20536 ft 362 kts 290°
2026-04-24 12:36 4.09585 97.99722 20866 ft 364 kts 290°
2026-04-24 12:36 4.10512 97.97357 21202 ft 365 kts 290°
2026-04-24 12:36 4.11444 97.94982 21542 ft 367 kts 290°
2026-04-24 12:37 4.12380 97.92600 21861 ft 369 kts 290°
2026-04-24 12:37 4.13322 97.90209 22199 ft 370 kts 290°
2026-04-24 12:37 4.14277 97.87802 22508 ft 372 kts 292°
2026-04-24 12:37 4.15313 97.85423 22795 ft 373 kts 289°
2026-04-24 12:38 4.16281 97.83005 23111 ft 375 kts 291°
2026-04-24 12:38 4.17288 97.80583 23434 ft 376 kts 291°
2026-04-24 12:38 4.18299 97.78156 23698 ft 378 kts 291°
2026-04-24 12:39 4.21168 97.70741 24472 ft 382 kts 289°
2026-04-24 12:39 4.22096 97.68281 24754 ft 383 kts 289°
2026-04-24 12:39 4.23051 97.65752 25022 ft 384 kts 289°
2026-04-24 12:40 4.23985 97.63275 25287 ft 386 kts 289°
2026-04-24 12:40 4.24947 97.60725 25559 ft 387 kts 289°
2026-04-24 12:40 4.25902 97.58193 25804 ft 389 kts 289°
2026-04-24 12:40 4.26858 97.55659 26066 ft 390 kts 289°
2026-04-24 12:41 4.27806 97.53144 26350 ft 391 kts 289°
2026-04-24 12:41 4.28770 97.50589 26608 ft 393 kts 289°
2026-04-24 12:41 4.29760 97.47996 26856 ft 394 kts 291°
2026-04-24 12:41 4.30926 97.45546 27067 ft 396 kts 291°
2026-04-24 12:42 4.31813 97.42935 27292 ft 396 kts 288°
2026-04-24 12:42 4.32764 97.40301 27545 ft 398 kts 289°
2026-04-24 12:42 4.33745 97.37702 27745 ft 401 kts 289°
2026-04-24 12:42 4.34741 97.35068 27821 ft 407 kts 289°
2026-04-24 12:43 4.35739 97.32428 27890 ft 413 kts 289°
2026-04-24 12:43 4.36763 97.29712 27959 ft 420 kts 289°
2026-04-24 12:43 4.37805 97.26949 28023 ft 427 kts 289°
2026-04-24 12:44 4.39879 97.21282 28164 ft 439 kts 286°
2026-04-24 12:44 4.40763 97.15200 28285 ft 447 kts 264°
2026-04-24 12:45 4.39621 97.09012 28424 ft 457 kts 256°
2026-04-24 12:45 4.38252 97.02701 28544 ft 469 kts 256°
2026-04-24 12:45 4.37554 96.99496 28774 ft 470 kts 256°
2026-04-24 12:46 4.36861 96.96310 29210 ft 466 kts 256°
2026-04-24 12:46 4.36180 96.93191 29678 ft 462 kts 256°
2026-04-24 12:46 4.35560 96.90044 30131 ft 458 kts 258°
2026-04-24 12:46 4.34998 96.86910 30541 ft 455 kts 259°
2026-04-24 12:47 4.34686 96.83767 30932 ft 452 kts 269°
2026-04-24 12:47 4.34988 96.80642 31343 ft 450 kts 281°
2026-04-24 12:47 4.35911 96.77658 31778 ft 446 kts 291°
2026-04-24 12:47 4.36962 96.74744 32199 ft 442 kts 287°
2026-04-24 12:48 4.37834 96.71808 32626 ft 437 kts 283°
2026-04-24 12:48 4.38635 96.68881 33060 ft 432 kts 289°
2026-04-24 12:48 4.39775 96.66116 33513 ft 427 kts 294°
2026-04-24 12:48 4.41020 96.63426 33843 ft 426 kts 294°
2026-04-24 12:49 4.42279 96.60720 33932 ft 430 kts 294°
2026-04-24 12:49 4.44839 96.55216 33934 ft 442 kts 294°
2026-04-24 12:50 4.47471 96.49554 33929 ft 455 kts 294°
2026-04-24 12:50 4.50178 96.43733 33921 ft 467 kts 294°
2026-04-24 12:51 4.52958 96.37755 33912 ft 479 kts 294°
2026-04-24 12:51 4.55806 96.31633 33911 ft 489 kts 294°
2026-04-24 12:52 4.58698 96.25404 33904 ft 496 kts 294°
2026-04-24 12:52 4.61618 96.19118 33900 ft 499 kts 294°
2026-04-24 12:53 4.64557 96.12798 33896 ft 501 kts 294°
2026-04-24 12:53 4.67488 96.06500 33897 ft 502 kts 294°
2026-04-24 12:54 4.70446 96.00147 33895 ft 502 kts 294°
2026-04-24 12:54 4.73402 95.93795 33888 ft 502 kts 294°
2026-04-24 12:55 4.76658 95.87611 33852 ft 502 kts 298°
2026-04-24 12:55 4.79687 95.81298 33849 ft 502 kts 293°
2026-04-24 12:56 4.82505 95.74943 33866 ft 493 kts 293°
2026-04-24 12:56 4.85285 95.68665 33860 ft 493 kts 293°
2026-04-24 12:57 4.88052 95.62417 33855 ft 493 kts 293°
2026-04-24 12:57 4.90854 95.56090 33851 ft 493 kts 293°
2026-04-24 12:58 4.93637 95.49809 33853 ft 493 kts 293°
2026-04-24 12:58 4.96408 95.43555 33849 ft 493 kts 293°
2026-04-24 12:59 4.99192 95.37266 33846 ft 493 kts 293°
2026-04-24 12:59 5.01980 95.30968 33846 ft 493 kts 293°
2026-04-24 13:00 5.04761 95.24682 33849 ft 493 kts 293°
2026-04-24 13:00 5.07544 95.18388 33849 ft 493 kts 293°
2026-04-24 13:01 5.10319 95.12106 33853 ft 492 kts 293°
2026-04-24 13:01 5.13087 95.05823 33854 ft 492 kts 293°
2026-04-24 13:02 5.16361 94.99801 33849 ft 493 kts 307°
2026-04-24 13:02 5.21163 94.94983 33850 ft 493 kts 323°
2026-04-24 13:03 5.27193 94.91746 33857 ft 492 kts 339°
2026-04-24 13:03 5.30270 94.90243 33850 ft 492 kts 328°
2026-04-24 13:03 5.33014 94.88192 33849 ft 492 kts 317°
2026-04-24 13:03 5.35323 94.85659 33845 ft 492 kts 306°
2026-04-24 13:04 5.37112 94.82739 33849 ft 492 kts 295°
2026-04-24 13:04 5.38319 94.79533 33849 ft 492 kts 284°
2026-04-24 13:04 5.38904 94.76152 33846 ft 492 kts 274°
2026-04-24 13:05 5.39021 94.69296 33845 ft 492 kts 278°
2026-04-24 13:05 5.39803 94.65956 33840 ft 492 kts 289°
2026-04-24 13:05 5.41070 94.62764 33834 ft 493 kts 289°
2026-04-24 13:06 5.43304 94.56255 33844 ft 493 kts 290°
2026-04-24 13:06 5.45692 94.49801 33855 ft 494 kts 290°
2026-04-24 13:07 5.48076 94.43320 33855 ft 495 kts 290°
2026-04-24 13:07 5.50471 94.36841 33856 ft 495 kts 292°
2026-04-24 13:08 5.53166 94.30476 33854 ft 495 kts 293°
2026-04-24 13:08 5.55878 94.24107 33858 ft 496 kts 293°
2026-04-24 13:09 5.59887 94.14573 33863 ft 496 kts 291°
2026-04-24 13:09 5.62276 94.08068 33861 ft 497 kts 290°
2026-04-24 13:10 5.64645 94.01549 33864 ft 497 kts 290°
2026-04-24 13:10 5.67014 93.95023 33861 ft 497 kts 290°
2026-04-24 13:11 5.69377 93.88505 33863 ft 497 kts 290°
2026-04-24 13:11 5.71740 93.81981 33861 ft 497 kts 290°
2026-04-24 13:12 5.74103 93.75451 33861 ft 497 kts 290°
2026-04-24 13:12 5.76494 93.68931 33861 ft 497 kts 291°
2026-04-24 13:13 5.78965 93.62445 33860 ft 497 kts 291°
2026-04-24 13:13 5.81434 93.55949 33860 ft 497 kts 291°
2026-04-24 13:14 5.84056 93.49522 33856 ft 497 kts 292°
2026-04-24 13:14 5.86620 93.43116 33859 ft 497 kts 292°
2026-04-24 13:15 5.89195 93.36664 33860 ft 497 kts 292°
2026-04-24 13:15 5.91767 93.30214 33854 ft 498 kts 292°
2026-04-24 13:16 5.94341 93.23756 33860 ft 498 kts 292°
2026-04-24 13:16 5.96480 93.18387 33860 ft 498 kts 292°
2026-04-24 13:17 5.99054 93.11926 33857 ft 498 kts 292°
2026-04-24 13:17 6.01624 93.05474 33860 ft 498 kts 292°
2026-04-24 13:18 6.04194 92.99016 33858 ft 498 kts 292°
2026-04-24 13:18 6.06762 92.92556 33855 ft 498 kts 292°
2026-04-24 13:19 6.09333 92.86086 33855 ft 498 kts 292°
2026-04-24 13:19 6.11899 92.79625 33858 ft 498 kts 292°
2026-04-24 13:20 6.14467 92.73153 33860 ft 498 kts 292°
2026-04-24 13:20 6.17033 92.66682 33860 ft 498 kts 292°
2026-04-24 13:21 6.19597 92.60214 33863 ft 498 kts 292°
2026-04-24 13:21 6.22161 92.53738 33856 ft 498 kts 292°
2026-04-24 13:22 6.24723 92.47263 33863 ft 499 kts 292°
2026-04-24 13:22 6.27286 92.40783 33861 ft 499 kts 292°
2026-04-24 13:23 6.29833 92.34340 33863 ft 499 kts 292°
2026-04-24 13:23 6.32394 92.27858 33863 ft 499 kts 292°
2026-04-24 13:24 6.34952 92.21375 33862 ft 499 kts 292°
2026-04-24 13:24 6.37509 92.14890 33865 ft 499 kts 292°
2026-04-24 13:25 6.40068 92.08397 33866 ft 499 kts 292°
2026-04-24 13:25 6.42627 92.01905 33865 ft 499 kts 292°
2026-04-24 13:26 6.45183 91.95415 33866 ft 499 kts 292°
2026-04-24 13:26 6.47739 91.88923 33864 ft 499 kts 292°
2026-04-24 13:27 6.50296 91.82425 33865 ft 499 kts 292°
2026-04-24 13:27 6.52849 91.75933 33865 ft 499 kts 292°
2026-04-24 13:28 6.55404 91.69435 33862 ft 500 kts 292°
2026-04-24 13:28 6.57941 91.62977 33867 ft 500 kts 292°
2026-04-24 13:29 6.60495 91.56473 33861 ft 500 kts 292°
2026-04-24 13:29 6.63047 91.49972 33867 ft 500 kts 292°
2026-04-24 13:30 6.65600 91.43462 33867 ft 500 kts 292°
2026-04-24 13:30 6.68149 91.36954 33865 ft 500 kts 292°
2026-04-24 13:31 6.70695 91.30449 33864 ft 500 kts 292°
2026-04-24 13:31 6.73239 91.23940 33867 ft 500 kts 292°
2026-04-24 13:32 6.75784 91.17429 33865 ft 500 kts 292°
2026-04-24 13:32 6.78316 91.10950 33872 ft 500 kts 292°
2026-04-24 13:33 6.80859 91.04431 33866 ft 500 kts 292°
2026-04-24 13:33 6.83403 90.97909 33868 ft 500 kts 292°
2026-04-24 13:34 6.85942 90.91397 33869 ft 500 kts 292°
2026-04-24 13:34 6.88485 90.84871 33867 ft 500 kts 292°
2026-04-24 13:35 6.91024 90.78354 33868 ft 500 kts 292°
2026-04-24 13:35 6.93547 90.71872 33869 ft 500 kts 292°
2026-04-24 13:36 6.96089 90.65348 33866 ft 500 kts 292°
2026-04-24 13:36 6.98630 90.58828 33869 ft 500 kts 292°
2026-04-24 13:37 7.01174 90.52297 33868 ft 501 kts 292°
2026-04-24 13:37 7.03713 90.45765 33867 ft 501 kts 292°
2026-04-24 13:38 7.06234 90.39274 33874 ft 501 kts 292°
2026-04-24 13:38 7.08769 90.32743 33870 ft 501 kts 292°
2026-04-24 13:39 7.11304 90.26209 33869 ft 501 kts 292°
2026-04-24 13:39 7.13840 90.19673 33869 ft 501 kts 292°
2026-04-24 13:40 7.16376 90.13133 33870 ft 501 kts 292°
2026-04-24 13:40 7.18907 90.06598 33871 ft 501 kts 292°
2026-04-24 13:41 7.21436 90.00056 33873 ft 501 kts 292°
2026-04-24 13:41 7.23963 89.93522 33876 ft 501 kts 292°
2026-04-24 13:42 7.26480 89.87030 33876 ft 500 kts 292°
2026-04-24 13:42 7.29014 89.80503 33877 ft 500 kts 292°
2026-04-24 13:43 7.31547 89.73982 33876 ft 500 kts 292°
2026-04-24 13:43 7.34083 89.67464 33874 ft 499 kts 292°
2026-04-24 13:44 7.36619 89.60951 33874 ft 499 kts 292°
2026-04-24 13:44 7.39155 89.54439 33876 ft 499 kts 291°
2026-04-24 13:45 7.41690 89.47933 33875 ft 499 kts 291°
2026-04-24 13:45 7.44227 89.41435 33871 ft 498 kts 291°
2026-04-24 13:46 7.46771 89.34939 33872 ft 498 kts 291°
2026-04-24 13:46 7.49316 89.28454 33873 ft 498 kts 291°
2026-04-24 13:47 7.51868 89.21968 33873 ft 497 kts 291°
2026-04-24 13:47 7.54422 89.15492 33871 ft 497 kts 291°
2026-04-24 13:48 7.56980 89.09015 33878 ft 497 kts 291°
2026-04-24 13:48 7.59524 89.02583 33876 ft 497 kts 291°
2026-04-24 13:49 7.62084 88.96122 33878 ft 496 kts 291°
2026-04-24 13:49 7.64649 88.89655 33875 ft 496 kts 291°
2026-04-24 13:50 7.67211 88.83196 33877 ft 496 kts 291°
2026-04-24 13:50 7.69776 88.76744 33877 ft 495 kts 291°
2026-04-24 13:51 7.72342 88.70306 33872 ft 495 kts 291°
2026-04-24 13:51 7.74908 88.63869 33881 ft 494 kts 291°
2026-04-24 13:52 7.77471 88.57442 33881 ft 493 kts 291°
2026-04-24 13:52 7.80033 88.51026 33882 ft 493 kts 291°
2026-04-24 13:53 7.82588 88.44626 33882 ft 492 kts 291°
2026-04-24 13:53 7.85128 88.38274 33880 ft 491 kts 291°
2026-04-24 13:54 7.87684 88.31892 33879 ft 490 kts 291°
2026-04-24 13:54 7.90238 88.25522 33875 ft 490 kts 291°
2026-04-24 13:55 7.92791 88.19151 33873 ft 490 kts 291°
2026-04-24 13:55 7.95344 88.12780 33873 ft 490 kts 291°
2026-04-24 13:56 7.97898 88.06406 33875 ft 489 kts 291°
2026-04-24 13:56 8.00455 88.00034 33875 ft 490 kts 291°
2026-04-24 13:57 8.03013 87.93668 33873 ft 490 kts 291°
2026-04-24 13:57 8.05571 87.87302 33877 ft 490 kts 291°
2026-04-24 13:58 8.08132 87.80931 33876 ft 490 kts 291°
2026-04-24 13:58 8.10693 87.74556 33873 ft 490 kts 291°
2026-04-24 13:59 8.13256 87.68183 33878 ft 490 kts 291°
2026-04-24 13:59 8.15823 87.61810 33877 ft 490 kts 291°
2026-04-24 14:00 8.18392 87.55439 33883 ft 490 kts 291°
2026-04-24 14:00 8.20952 87.49098 33880 ft 490 kts 291°
2026-04-24 14:01 8.23529 87.42725 33876 ft 490 kts 291°
2026-04-24 14:01 8.25685 87.37394 33882 ft 490 kts 291°
2026-04-24 14:02 8.28245 87.31064 33878 ft 490 kts 291°
2026-04-24 14:02 8.30818 87.24698 33876 ft 490 kts 291°
2026-04-24 14:03 8.33396 87.18321 33880 ft 490 kts 291°
2026-04-24 14:03 8.35972 87.11953 33879 ft 490 kts 291°
2026-04-24 14:04 8.38549 87.05589 33875 ft 490 kts 291°
2026-04-24 14:04 8.41129 86.99225 33878 ft 490 kts 291°
2026-04-24 14:05 8.43712 86.92863 33871 ft 490 kts 291°
2026-04-24 14:05 8.46297 86.86493 33875 ft 490 kts 291°
2026-04-24 14:06 8.48881 86.80134 33878 ft 490 kts 291°
2026-04-24 14:06 8.51469 86.73771 33882 ft 490 kts 291°
2026-04-24 14:07 8.54062 86.67407 33880 ft 490 kts 291°
2026-04-24 14:07 8.56662 86.61040 33875 ft 490 kts 291°
2026-04-24 14:08 8.59251 86.54712 33876 ft 490 kts 291°
2026-04-24 14:08 8.61853 86.48344 33877 ft 490 kts 291°
2026-04-24 14:09 8.64457 86.41984 33872 ft 490 kts 291°
2026-04-24 14:09 8.67064 86.35628 33875 ft 490 kts 291°
2026-04-24 14:10 8.69675 86.29274 33880 ft 489 kts 291°
2026-04-24 14:10 8.72289 86.22920 33878 ft 489 kts 291°
2026-04-24 14:11 8.74910 86.16569 33880 ft 489 kts 291°
2026-04-24 14:12 8.78840 86.07046 33876 ft 489 kts 291°
2026-04-24 14:12 8.81460 86.00710 33880 ft 489 kts 291°
2026-04-24 14:13 8.84070 85.94410 33875 ft 489 kts 291°
2026-04-24 14:13 8.86712 85.88032 33873 ft 489 kts 291°
2026-04-24 14:14 8.89339 85.81695 33876 ft 489 kts 291°
2026-04-24 14:14 8.93266 85.72230 33874 ft 489 kts 291°
2026-04-24 14:15 8.95901 85.65880 33871 ft 489 kts 291°
2026-04-24 14:15 8.98536 85.59537 33870 ft 489 kts 291°
2026-04-24 14:16 9.01173 85.53190 33870 ft 489 kts 291°
2026-04-24 14:17 9.05131 85.43667 33869 ft 490 kts 291°
2026-04-24 14:17 9.09093 85.34140 33874 ft 490 kts 291°
2026-04-24 14:18 9.11740 85.27786 33870 ft 490 kts 291°
2026-04-24 14:18 9.14387 85.21423 33873 ft 490 kts 291°
2026-04-24 14:19 9.17038 85.15063 33871 ft 491 kts 291°
2026-04-24 14:19 9.19690 85.08699 33871 ft 491 kts 291°
2026-04-24 14:20 9.22346 85.02333 33872 ft 491 kts 291°
2026-04-24 14:20 9.24991 84.96001 33873 ft 491 kts 291°
2026-04-24 14:21 9.27653 84.89630 33873 ft 491 kts 291°
2026-04-24 14:21 9.30316 84.83254 33872 ft 491 kts 291°
2026-04-24 14:22 9.32982 84.76871 33877 ft 491 kts 291°
2026-04-24 14:23 9.36978 84.67307 33872 ft 492 kts 291°
2026-04-24 14:23 9.39644 84.60930 33873 ft 492 kts 291°
2026-04-24 14:24 9.42311 84.54549 33876 ft 492 kts 291°
2026-04-24 14:24 9.44978 84.48175 33876 ft 492 kts 291°
2026-04-24 14:25 9.47633 84.41831 33877 ft 492 kts 291°
2026-04-24 14:25 9.50301 84.35456 33871 ft 492 kts 291°
2026-04-24 14:26 9.52969 84.29080 33874 ft 491 kts 291°
2026-04-24 14:26 9.55636 84.22705 33870 ft 491 kts 291°
2026-04-24 14:27 9.58306 84.16329 33872 ft 491 kts 291°
2026-04-24 14:27 9.60976 84.09958 33870 ft 491 kts 291°
2026-04-24 14:28 9.63649 84.03593 33871 ft 491 kts 291°
2026-04-24 14:28 9.66321 83.97227 33870 ft 491 kts 291°
2026-04-24 14:29 9.68994 83.90859 33870 ft 491 kts 291°
2026-04-24 14:29 9.71668 83.84494 33866 ft 491 kts 291°
2026-04-24 14:30 9.73891 83.79205 33866 ft 491 kts 291°
2026-04-24 14:30 9.77026 83.71759 33872 ft 491 kts 291°
2026-04-24 14:31 9.79707 83.65394 33864 ft 491 kts 291°
2026-04-24 14:31 9.82378 83.59065 33868 ft 491 kts 291°
2026-04-24 14:32 9.85068 83.52699 33863 ft 491 kts 291°
2026-04-24 14:32 9.87762 83.46333 33870 ft 491 kts 291°
2026-04-24 14:33 9.90460 83.39968 33870 ft 491 kts 291°
2026-04-24 14:33 9.93163 83.33606 33867 ft 491 kts 291°
2026-04-24 14:34 9.95872 83.27244 33866 ft 491 kts 291°
2026-04-24 14:34 9.98590 83.20881 33865 ft 491 kts 291°
2026-04-24 14:35 10.01310 83.14527 33866 ft 491 kts 291°
2026-04-24 14:35 10.04037 83.08168 33868 ft 491 kts 291°
2026-04-24 14:36 10.06765 83.01813 33870 ft 491 kts 291°
2026-04-24 14:36 10.09496 82.95462 33869 ft 491 kts 291°
2026-04-24 14:37 10.12214 82.89150 33869 ft 491 kts 291°
2026-04-24 14:37 10.14950 82.82804 33870 ft 491 kts 291°
2026-04-24 14:38 10.17689 82.76461 33863 ft 490 kts 291°
2026-04-24 14:38 10.20428 82.70112 33866 ft 490 kts 291°
2026-04-24 14:39 10.23163 82.63771 33866 ft 490 kts 291°
2026-04-24 14:39 10.25895 82.57433 33862 ft 490 kts 291°
2026-04-24 14:40 10.28627 82.51097 33865 ft 490 kts 291°
2026-04-24 14:40 10.31339 82.44799 33864 ft 489 kts 291°
2026-04-24 14:41 10.34068 82.38468 33860 ft 489 kts 291°
2026-04-24 14:41 10.36799 82.32131 33861 ft 489 kts 291°
2026-04-24 14:42 10.39066 82.26868 33863 ft 489 kts 291°
2026-04-24 14:42 10.42256 82.19470 33862 ft 489 kts 291°
2026-04-24 14:43 10.44981 82.13146 33864 ft 488 kts 291°
2026-04-24 14:43 10.47704 82.06823 33859 ft 488 kts 291°
2026-04-24 14:44 10.50423 82.00509 33863 ft 488 kts 291°
2026-04-24 14:44 10.53142 81.94196 33865 ft 487 kts 291°
2026-04-24 14:45 10.56068 81.87985 33862 ft 489 kts 300°
2026-04-24 14:45 10.59999 81.82391 33861 ft 490 kts 306°
2026-04-24 14:46 10.63727 81.77987 33857 ft 491 kts 309°
2026-04-24 14:46 10.69003 81.71970 33861 ft 490 kts 309°
2026-04-24 14:47 10.72782 81.67661 33856 ft 490 kts 309°
2026-04-24 14:47 10.77323 81.62485 33849 ft 490 kts 309°
2026-04-24 14:48 10.81861 81.57318 33854 ft 490 kts 309°
2026-04-24 14:48 10.86518 81.52259 33853 ft 491 kts 315°
2026-04-24 14:49 10.91878 81.47930 33855 ft 492 kts 321°
2026-04-24 14:49 10.97521 81.43967 33852 ft 493 kts 327°
2026-04-24 14:50 11.03503 81.40546 33853 ft 494 kts 332°
2026-04-24 14:50 11.09510 81.37181 33862 ft 492 kts 327°
2026-04-24 14:51 11.15423 81.33678 33856 ft 492 kts 329°
2026-04-24 14:51 11.20751 81.29514 33858 ft 485 kts 310°
2026-04-24 14:52 11.25148 81.24320 33858 ft 484 kts 309°
2026-04-24 14:52 11.29524 81.19102 33862 ft 484 kts 309°
2026-04-24 14:53 11.33891 81.13889 33863 ft 483 kts 309°
2026-04-24 14:53 11.38251 81.08678 33845 ft 483 kts 309°
2026-04-24 14:54 11.42610 81.03457 33846 ft 482 kts 309°
2026-04-24 14:54 11.46954 80.98250 33857 ft 482 kts 309°
2026-04-24 14:55 11.51299 80.93032 33862 ft 482 kts 309°
2026-04-24 14:55 11.55635 80.87818 33838 ft 482 kts 309°
2026-04-24 14:56 11.59972 80.82601 33831 ft 482 kts 309°
2026-04-24 14:56 11.64282 80.77412 33839 ft 483 kts 309°
2026-04-24 14:57 11.68628 80.72187 33844 ft 483 kts 309°
2026-04-24 14:57 11.72449 80.66590 33828 ft 480 kts 292°
2026-04-24 14:57 11.73540 80.63382 33828 ft 478 kts 281°
2026-04-24 14:58 11.73994 80.60027 33822 ft 476 kts 270°
2026-04-24 14:58 11.74051 80.53260 33823 ft 478 kts 269°
2026-04-24 14:59 11.74094 80.46469 33829 ft 479 kts 269°
2026-04-24 14:59 11.74233 80.41919 33830 ft 482 kts 275°
2026-04-24 15:00 11.76083 80.35474 33820 ft 488 kts 291°
2026-04-24 15:00 11.79009 80.29241 33841 ft 491 kts 294°
2026-04-24 15:01 11.82033 80.22977 33847 ft 492 kts 294°
2026-04-24 15:01 11.85080 80.16714 33855 ft 492 kts 294°
2026-04-24 15:02 11.88126 80.10472 33853 ft 488 kts 292°
2026-04-24 15:02 11.90837 80.04129 33834 ft 486 kts 290°
2026-04-24 15:03 11.93468 79.97783 33838 ft 484 kts 290°
2026-04-24 15:03 11.96109 79.91465 33843 ft 482 kts 290°
2026-04-24 15:04 11.98754 79.85166 33842 ft 482 kts 290°
2026-04-24 15:04 12.01383 79.78924 33846 ft 482 kts 290°
2026-04-24 15:05 12.04040 79.72641 33853 ft 481 kts 290°
2026-04-24 15:05 12.06798 79.66403 33852 ft 483 kts 293°
2026-04-24 15:06 12.09854 79.60285 33856 ft 482 kts 292°
2026-04-24 15:06 12.12758 79.54109 33864 ft 482 kts 291°
2026-04-24 15:07 12.15549 79.47885 33865 ft 480 kts 289°
2026-04-24 15:07 12.17968 79.41545 33867 ft 477 kts 283°
2026-04-24 15:08 12.19861 79.35056 33871 ft 477 kts 285°
2026-04-24 15:08 12.22338 79.28735 33880 ft 480 kts 289°
2026-04-24 15:09 12.25038 79.22528 33885 ft 481 kts 290°
2026-04-24 15:09 12.27881 79.16337 33889 ft 480 kts 290°
2026-04-24 15:10 12.30624 79.10106 33896 ft 480 kts 290°
2026-04-24 15:10 12.33370 79.03878 33906 ft 480 kts 290°
2026-04-24 15:11 12.36125 78.97659 33915 ft 480 kts 290°
2026-04-24 15:11 12.38894 78.91444 33920 ft 479 kts 290°
2026-04-24 15:12 12.41671 78.85246 33930 ft 479 kts 290°
2026-04-24 15:12 12.45856 78.75982 33926 ft 478 kts 290°
2026-04-24 15:13 12.48652 78.69832 33933 ft 476 kts 290°
2026-04-24 15:13 12.51469 78.63687 33934 ft 477 kts 290°
2026-04-24 15:14 12.54293 78.57547 33942 ft 476 kts 290°
2026-04-24 15:14 12.57126 78.51418 33949 ft 476 kts 290°
2026-04-24 15:15 12.59968 78.45299 33956 ft 476 kts 290°
2026-04-24 15:15 12.62804 78.39213 33959 ft 476 kts 290°
2026-04-24 15:16 12.65659 78.33106 33966 ft 475 kts 290°
2026-04-24 15:16 12.68535 78.27004 33974 ft 475 kts 290°
2026-04-24 15:17 12.71411 78.20915 33985 ft 475 kts 290°
2026-04-24 15:17 12.74290 78.14823 33988 ft 475 kts 290°
2026-04-24 15:18 12.77172 78.08733 33995 ft 475 kts 290°
2026-04-24 15:18 12.80058 78.02642 34003 ft 475 kts 290°
2026-04-24 15:19 12.82951 77.96552 34006 ft 475 kts 290°
2026-04-24 15:19 12.85845 77.90468 34016 ft 475 kts 290°
2026-04-24 15:20 12.88741 77.84388 34020 ft 475 kts 290°
2026-04-24 15:20 12.91640 77.78309 34019 ft 474 kts 290°
2026-04-24 15:21 12.94538 77.72235 34020 ft 474 kts 290°
2026-04-24 15:21 12.97431 77.66172 34023 ft 474 kts 290°
2026-04-24 15:22 13.00332 77.60084 34022 ft 473 kts 289°
2026-04-24 15:23 13.04578 77.50949 34015 ft 475 kts 291°
2026-04-24 15:23 13.09253 77.41985 33997 ft 471 kts 287°
2026-04-24 15:25 13.15902 77.27868 33970 ft 476 kts 293°
2026-04-24 15:26 13.24530 77.12050 33955 ft 476 kts 293°
2026-04-24 15:27 13.34219 76.94317 33940 ft 475 kts 293°
2026-04-24 15:29 13.43385 76.77540 33941 ft 476 kts 293°
2026-04-24 15:31 13.54786 76.56607 33933 ft 484 kts 293°
2026-04-24 15:33 13.68300 76.32581 33933 ft 478 kts 285°
2026-04-24 15:34 13.74662 76.16814 33939 ft 485 kts 293°
2026-04-24 15:35 13.82898 76.01615 33940 ft 487 kts 293°
2026-04-24 15:36 13.86191 75.95520 33936 ft 487 kts 293°
2026-04-24 15:36 13.91128 75.86372 33938 ft 487 kts 293°
2026-04-24 15:37 13.94400 75.80300 33936 ft 488 kts 293°
2026-04-24 15:37 13.97695 75.74183 33938 ft 488 kts 293°
2026-04-24 15:38 14.00982 75.68078 33933 ft 488 kts 293°
2026-04-24 15:38 14.04275 75.61966 33936 ft 488 kts 293°
2026-04-24 15:39 14.07563 75.55862 33932 ft 487 kts 293°
2026-04-24 15:39 14.10853 75.49762 33917 ft 487 kts 293°
2026-04-24 15:40 14.14149 75.43656 33928 ft 487 kts 293°
2026-04-24 15:40 14.17447 75.37551 33941 ft 488 kts 293°
2026-04-24 15:41 14.20752 75.31440 33935 ft 488 kts 293°
2026-04-24 15:41 14.24038 75.25375 33922 ft 488 kts 293°
2026-04-24 15:42 14.27358 75.19258 33920 ft 488 kts 293°
2026-04-24 15:42 14.30680 75.13144 33919 ft 489 kts 293°
2026-04-24 15:43 14.34008 75.07028 33917 ft 489 kts 293°
2026-04-24 15:43 14.37344 75.00910 33913 ft 489 kts 293°
2026-04-24 15:44 14.40679 74.94805 33913 ft 489 kts 293°
2026-04-24 15:44 14.44026 74.88688 33908 ft 489 kts 293°
2026-04-24 15:45 14.47309 74.82597 33900 ft 488 kts 292°
2026-04-24 15:45 14.50546 74.76447 33892 ft 488 kts 292°
2026-04-24 15:46 14.53787 74.70298 33889 ft 488 kts 292°
2026-04-24 15:46 14.57042 74.64141 33884 ft 488 kts 292°
2026-04-24 15:47 14.60298 74.57986 33879 ft 488 kts 292°
2026-04-24 15:47 14.63554 74.51840 33872 ft 488 kts 292°
2026-04-24 15:48 14.66823 74.45680 33867 ft 488 kts 292°
2026-04-24 15:48 14.70078 74.39575 33856 ft 488 kts 292°
2026-04-24 15:49 14.73361 74.33440 33862 ft 487 kts 292°
2026-04-24 15:49 14.76643 74.27309 33861 ft 488 kts 292°
2026-04-24 15:50 14.79925 74.21172 33855 ft 488 kts 292°
2026-04-24 15:50 14.83217 74.15022 33853 ft 488 kts 292°
2026-04-24 15:51 14.86518 74.08868 33848 ft 488 kts 292°
2026-04-24 15:51 14.89814 74.02731 33848 ft 488 kts 292°
2026-04-24 15:52 14.93116 73.96594 33848 ft 488 kts 292°
2026-04-24 15:52 14.96420 73.90458 33847 ft 488 kts 292°
2026-04-24 15:53 14.99732 73.84325 33838 ft 488 kts 292°
2026-04-24 15:53 15.03048 73.78191 33834 ft 488 kts 292°
2026-04-24 15:54 15.06372 73.72055 33838 ft 489 kts 292°
2026-04-24 15:54 15.09698 73.65924 33833 ft 489 kts 292°
2026-04-24 15:55 15.13032 73.59794 33829 ft 489 kts 292°
2026-04-24 15:55 15.16376 73.53657 33829 ft 489 kts 292°
2026-04-24 15:56 15.19707 73.47563 33828 ft 489 kts 292°
2026-04-24 15:56 15.23062 73.41433 33827 ft 489 kts 292°
2026-04-24 15:57 15.26422 73.35307 33829 ft 489 kts 292°
2026-04-24 15:57 15.29789 73.29175 33832 ft 489 kts 292°
2026-04-24 15:58 15.33160 73.23049 33836 ft 489 kts 292°
2026-04-24 15:58 15.36536 73.16922 33838 ft 489 kts 292°
2026-04-24 15:59 15.39914 73.10802 33841 ft 489 kts 292°
2026-04-24 15:59 15.43297 73.04682 33843 ft 489 kts 292°
2026-04-24 16:00 15.46668 72.98595 33844 ft 489 kts 292°
2026-04-24 16:00 15.49974 72.92442 33849 ft 488 kts 291°
2026-04-24 16:01 15.53167 72.86251 33853 ft 485 kts 289°
2026-04-24 16:01 15.56213 72.80006 33850 ft 485 kts 289°
2026-04-24 16:02 15.59263 72.73771 33853 ft 484 kts 289°
2026-04-24 16:02 15.62202 72.67494 33853 ft 483 kts 288°
2026-04-24 16:03 15.65132 72.61218 33856 ft 483 kts 288°
2026-04-24 16:03 15.68067 72.54941 33855 ft 483 kts 288°
2026-04-24 16:04 15.71001 72.48669 33855 ft 483 kts 288°
2026-04-24 16:04 15.74192 72.42490 33851 ft 488 kts 293°
2026-04-24 16:05 15.79420 72.33465 33856 ft 488 kts 293°
2026-04-24 16:06 15.84674 72.24409 33858 ft 488 kts 293°
2026-04-24 16:07 15.89927 72.15352 33860 ft 488 kts 293°
2026-04-24 16:07 15.94038 72.05871 33861 ft 471 kts 279°
2026-04-24 16:08 15.96545 71.96032 33860 ft 476 kts 283°
2026-04-24 16:09 16.01153 71.86717 33868 ft 485 kts 291°
2026-04-24 16:09 16.04422 71.80576 33865 ft 485 kts 291°
2026-04-24 16:11 16.12555 71.65243 33866 ft 485 kts 291°
2026-04-24 16:11 16.15803 71.59088 33866 ft 485 kts 291°
2026-04-24 16:12 16.20119 71.50879 33866 ft 485 kts 291°
2026-04-24 16:13 16.25490 71.40580 33869 ft 485 kts 291°
2026-04-24 16:14 16.31335 71.29249 33859 ft 485 kts 291°
2026-04-24 16:14 16.36079 71.19946 33865 ft 485 kts 291°
2026-04-24 16:15 16.40789 71.10610 33866 ft 485 kts 291°
2026-04-24 16:16 16.45446 71.01240 33868 ft 486 kts 291°
2026-04-24 16:17 16.53066 70.85566 33877 ft 486 kts 291°
2026-04-24 16:18 16.59079 70.72918 33874 ft 487 kts 291°
2026-04-24 16:19 16.63541 70.63385 33875 ft 487 kts 291°
2026-04-24 16:20 16.67963 70.53830 33876 ft 487 kts 291°
2026-04-24 16:20 16.72353 70.44249 33875 ft 488 kts 291°
2026-04-24 16:21 16.76696 70.34696 33876 ft 488 kts 291°
2026-04-24 16:22 16.79595 70.28278 33881 ft 488 kts 291°
2026-04-24 16:22 16.84533 70.18942 33888 ft 493 kts 300°
2026-04-24 16:23 16.88385 70.13002 33886 ft 494 kts 301°
2026-04-24 16:24 16.94139 70.04080 33885 ft 494 kts 301°
2026-04-24 16:24 16.97757 69.97986 33881 ft 493 kts 297°
2026-04-24 16:25 17.01238 69.91855 33885 ft 494 kts 297°
2026-04-24 16:25 17.04733 69.85670 33885 ft 494 kts 297°
2026-04-24 16:26 17.09949 69.76368 33886 ft 494 kts 298°
2026-04-24 16:26 17.12864 69.69914 33890 ft 489 kts 283°
2026-04-24 16:27 17.13815 69.66503 33882 ft 490 kts 289°
2026-04-24 16:27 17.16979 69.60197 33886 ft 494 kts 297°
2026-04-24 16:28 17.20422 69.53918 33887 ft 495 kts 298°
2026-04-24 16:28 17.25512 69.44560 33887 ft 496 kts 298°
2026-04-24 16:29 17.28898 69.38281 33887 ft 496 kts 298°
2026-04-24 16:30 17.35657 69.25677 33892 ft 496 kts 298°
2026-04-24 16:30 17.39023 69.19364 33893 ft 497 kts 298°
2026-04-24 16:31 17.42381 69.13042 33887 ft 497 kts 298°
2026-04-24 16:31 17.45730 69.06716 33892 ft 496 kts 298°
2026-04-24 16:32 17.49071 69.00377 33895 ft 496 kts 298°
2026-04-24 16:32 17.52389 68.94026 33894 ft 497 kts 298°
2026-04-24 16:33 17.55694 68.87665 33892 ft 497 kts 298°
2026-04-24 16:33 17.58983 68.81293 33894 ft 497 kts 298°
2026-04-24 16:34 17.62260 68.74906 33897 ft 497 kts 298°
2026-04-24 16:34 17.65528 68.68514 33900 ft 498 kts 298°
2026-04-24 16:35 17.68787 68.62102 33898 ft 498 kts 298°
2026-04-24 16:35 17.72032 68.55676 33901 ft 498 kts 298°
2026-04-24 16:36 17.75245 68.49289 33904 ft 498 kts 298°
2026-04-24 16:36 17.78463 68.42853 33904 ft 498 kts 298°
2026-04-24 16:37 17.81669 68.36410 33902 ft 498 kts 298°
2026-04-24 16:37 17.84863 68.29967 33902 ft 498 kts 298°
2026-04-24 16:38 17.88049 68.23499 33904 ft 498 kts 298°
2026-04-24 16:38 17.91229 68.17049 33904 ft 497 kts 298°
2026-04-24 16:39 17.94425 68.10605 33903 ft 497 kts 298°
2026-04-24 16:39 17.97610 68.04171 33903 ft 497 kts 298°
2026-04-24 16:40 18.00790 67.97720 33905 ft 497 kts 298°
2026-04-24 16:40 18.03964 67.91268 33906 ft 497 kts 298°
2026-04-24 16:41 18.07108 67.84855 33908 ft 497 kts 298°
2026-04-24 16:41 18.10277 67.78392 33906 ft 497 kts 298°
2026-04-24 16:42 18.13439 67.71930 33909 ft 497 kts 298°
2026-04-24 16:42 18.16599 67.65465 33910 ft 497 kts 298°
2026-04-24 16:43 18.19750 67.58999 33912 ft 497 kts 298°
2026-04-24 16:43 18.22905 67.52521 33914 ft 497 kts 298°
2026-04-24 16:44 18.26052 67.46052 33911 ft 497 kts 298°
2026-04-24 16:44 18.29203 67.39579 33907 ft 497 kts 298°
2026-04-24 16:45 18.32350 67.33111 33910 ft 497 kts 298°
2026-04-24 16:45 18.35481 67.26677 33912 ft 497 kts 298°
2026-04-24 16:46 18.38630 67.20203 33912 ft 497 kts 298°
2026-04-24 16:46 18.41778 67.13729 33913 ft 496 kts 298°
2026-04-24 16:47 18.44953 67.07271 33913 ft 496 kts 300°
2026-04-24 16:47 18.48393 67.00975 33915 ft 496 kts 301°
2026-04-24 16:48 18.51854 66.94691 33913 ft 495 kts 301°
2026-04-24 16:48 18.55291 66.88456 33916 ft 495 kts 301°
2026-04-24 16:49 18.58752 66.82173 33914 ft 495 kts 301°
2026-04-24 16:49 18.62214 66.75891 33917 ft 495 kts 301°
2026-04-24 16:50 18.65674 66.69604 33916 ft 495 kts 301°
2026-04-24 16:50 18.69133 66.63323 33918 ft 495 kts 301°
2026-04-24 16:51 18.72594 66.57035 33915 ft 495 kts 301°
2026-04-24 16:51 18.76050 66.50746 33916 ft 496 kts 301°
2026-04-24 16:52 18.79508 66.44445 33919 ft 496 kts 301°
2026-04-24 16:52 18.82961 66.38145 33918 ft 496 kts 301°
2026-04-24 16:53 18.86410 66.31835 33918 ft 496 kts 301°
2026-04-24 16:53 18.89833 66.25566 33920 ft 495 kts 301°
2026-04-24 16:54 18.93270 66.19254 33919 ft 495 kts 301°
2026-04-24 16:54 18.96708 66.12930 33919 ft 495 kts 301°
2026-04-24 16:55 19.00131 66.06610 33917 ft 495 kts 301°
2026-04-24 16:55 19.03546 66.00284 33917 ft 495 kts 301°
2026-04-24 16:56 19.06953 65.93948 33921 ft 495 kts 301°
2026-04-24 16:56 19.10309 65.87584 33923 ft 496 kts 300°
2026-04-24 16:57 19.13037 65.82262 33918 ft 496 kts 300°
2026-04-24 16:57 19.16849 65.74803 33920 ft 495 kts 300°
2026-04-24 16:58 19.20114 65.68382 33923 ft 495 kts 300°
2026-04-24 16:58 19.22841 65.62998 33924 ft 495 kts 300°
2026-04-24 16:59 19.26085 65.56573 33920 ft 495 kts 300°
2026-04-24 17:00 19.30927 65.46924 33921 ft 495 kts 300°
2026-04-24 17:00 19.35718 65.37313 33922 ft 494 kts 300°
2026-04-24 17:01 19.40508 65.27650 33920 ft 493 kts 300°
2026-04-24 17:02 19.45280 65.17989 33919 ft 493 kts 300°
2026-04-24 17:02 19.48448 65.11553 33923 ft 492 kts 300°
2026-04-24 17:03 19.53183 65.01890 33917 ft 492 kts 300°
2026-04-24 17:04 19.56327 64.95440 33918 ft 492 kts 300°
2026-04-24 17:04 19.61018 64.85777 33919 ft 491 kts 300°
2026-04-24 17:05 19.64138 64.79338 33915 ft 491 kts 300°
2026-04-24 17:06 19.68897 64.69795 33916 ft 489 kts 301°
2026-04-24 17:06 19.73707 64.60232 33920 ft 489 kts 301°
2026-04-24 17:07 19.76908 64.53855 33919 ft 489 kts 301°
2026-04-24 17:08 19.82687 64.40795 33916 ft 493 kts 292°
2026-04-24 17:08 19.84785 64.33863 33918 ft 493 kts 291°
2026-04-24 17:09 19.88804 64.19934 33918 ft 493 kts 289°
2026-04-24 17:10 19.92554 64.05909 33921 ft 493 kts 289°
2026-04-24 17:12 20.00145 63.77962 33914 ft 492 kts 289°
2026-04-24 18:54 22.67438 49.62057 33897 ft 460 kts 274°
2026-04-24 18:55 22.68145 49.51711 33895 ft 458 kts 272°
2026-04-24 18:56 22.68495 49.44830 33893 ft 458 kts 272°
2026-04-24 18:56 22.68852 49.37944 33895 ft 457 kts 272°
2026-04-24 18:57 22.69211 49.31126 33894 ft 456 kts 272°
2026-04-24 18:57 22.69576 49.24264 33898 ft 456 kts 272°
2026-04-24 18:58 22.69945 49.17408 33897 ft 456 kts 272°
2026-04-24 18:58 22.70319 49.10563 33896 ft 455 kts 272°
2026-04-24 18:59 22.70698 49.03725 33898 ft 455 kts 272°
2026-04-24 18:59 22.70893 48.96889 33896 ft 454 kts 270°
2026-04-24 19:00 22.71040 48.90057 33900 ft 454 kts 270°
2026-04-24 19:00 22.71194 48.83229 33898 ft 453 kts 270°
2026-04-24 19:01 22.71353 48.76396 33900 ft 453 kts 270°
2026-04-24 19:01 22.71514 48.69572 33895 ft 454 kts 270°
2026-04-24 19:02 22.71648 48.63887 33893 ft 454 kts 270°
2026-04-24 19:02 22.71758 48.59335 33309 ft 451 kts 270°
2026-04-24 19:02 22.71839 48.55914 32458 ft 460 kts 270°
2026-04-24 19:02 22.71916 48.52417 32085 ft 467 kts 270°
2026-04-24 19:03 22.71994 48.48903 31932 ft 467 kts 270°
2026-04-24 19:03 22.72149 48.41880 31896 ft 465 kts 270°
2026-04-24 19:04 22.72306 48.34881 31893 ft 464 kts 270°
2026-04-24 19:04 22.72468 48.27895 31895 ft 464 kts 270°
2026-04-24 19:05 22.72632 48.20962 31894 ft 463 kts 270°
2026-04-24 19:05 22.72804 48.13952 31896 ft 462 kts 270°
2026-04-24 19:06 22.72979 48.07047 31896 ft 461 kts 270°
2026-04-24 19:06 22.73163 48.00111 31897 ft 461 kts 270°
2026-04-24 19:07 22.73357 47.93174 31896 ft 460 kts 270°
2026-04-24 19:07 22.73527 47.87361 31896 ft 460 kts 270°
2026-04-24 19:08 22.73767 47.79311 31899 ft 460 kts 270°
2026-04-24 19:08 22.73982 47.72385 31902 ft 460 kts 270°
2026-04-24 19:09 22.74168 47.66588 31902 ft 460 kts 270°
2026-04-24 19:09 22.74393 47.59672 31906 ft 460 kts 270°
2026-04-24 19:10 22.74617 47.52745 31906 ft 460 kts 270°
2026-04-24 19:10 22.74840 47.45824 31906 ft 460 kts 271°
2026-04-24 19:11 22.75064 47.38902 31909 ft 460 kts 271°
2026-04-24 19:11 22.75286 47.31971 31914 ft 460 kts 271°
2026-04-24 19:12 22.75510 47.25038 31911 ft 461 kts 271°
2026-04-24 19:12 22.75734 47.18145 31917 ft 461 kts 271°
2026-04-24 19:13 22.75924 47.12327 31916 ft 461 kts 271°
2026-04-24 19:13 22.76191 47.04246 31924 ft 462 kts 271°
2026-04-24 19:14 22.76707 46.97299 31924 ft 463 kts 275°
2026-04-24 19:14 22.77432 46.90363 31927 ft 463 kts 275°
2026-04-24 19:15 22.78159 46.83429 31930 ft 463 kts 275°
2026-04-24 19:15 22.78893 46.76495 31940 ft 463 kts 275°
2026-04-24 19:16 22.80006 46.66104 31948 ft 463 kts 275°
2026-04-24 19:16 22.80753 46.59179 31945 ft 462 kts 275°
2026-04-24 19:17 22.81504 46.52259 31950 ft 462 kts 275°
2026-04-24 19:17 22.82258 46.45350 31948 ft 461 kts 275°
2026-04-24 19:18 22.83005 46.38480 31947 ft 461 kts 275°
2026-04-24 19:18 22.83758 46.31576 31942 ft 461 kts 275°
2026-04-24 19:19 22.84514 46.24682 31940 ft 461 kts 275°
2026-04-24 19:19 22.85272 46.17780 31931 ft 461 kts 275°
2026-04-24 19:20 22.86031 46.10876 31924 ft 461 kts 275°
2026-04-24 19:20 22.86801 46.03964 31917 ft 462 kts 275°
2026-04-24 19:21 22.87569 45.97048 31913 ft 462 kts 275°
2026-04-24 19:21 22.88341 45.90134 31911 ft 462 kts 275°
2026-04-24 19:22 22.89117 45.83226 31908 ft 461 kts 275°
2026-04-24 19:22 22.89894 45.76319 31909 ft 461 kts 275°
2026-04-24 19:23 22.90673 45.69411 31913 ft 461 kts 275°
2026-04-24 19:23 22.91454 45.62516 31919 ft 460 kts 275°
2026-04-24 19:24 22.92233 45.55631 31920 ft 460 kts 275°
2026-04-24 19:24 22.92986 45.48745 31923 ft 459 kts 273°
2026-04-24 19:25 22.93349 45.41844 31927 ft 458 kts 271°
2026-04-24 19:25 22.93852 45.34959 31925 ft 458 kts 273°
2026-04-24 19:26 22.94395 45.28072 31928 ft 458 kts 273°
2026-04-24 19:26 22.94942 45.21188 31934 ft 458 kts 273°
2026-04-24 19:27 22.95495 45.14306 31936 ft 458 kts 273°
2026-04-24 19:27 22.96053 45.07419 31936 ft 458 kts 273°
2026-04-24 19:28 22.96613 45.00538 31936 ft 458 kts 273°
2026-04-24 19:28 22.97181 44.93662 31938 ft 458 kts 273°
2026-04-24 19:29 22.98047 44.83328 31942 ft 459 kts 273°
2026-04-24 19:30 22.98637 44.76423 31947 ft 460 kts 273°
2026-04-24 19:30 22.99236 44.69509 31944 ft 461 kts 273°
2026-04-24 19:31 22.99844 44.62580 31943 ft 461 kts 273°
2026-04-24 19:31 23.00457 44.55692 31946 ft 462 kts 273°
2026-04-24 19:32 23.01801 44.48870 31952 ft 468 kts 287°
2026-04-24 19:32 23.04216 44.42299 31947 ft 469 kts 288°
2026-04-24 19:33 23.06647 44.35725 31946 ft 469 kts 288°
2026-04-24 19:33 23.09084 44.29151 31946 ft 469 kts 288°
2026-04-24 19:34 23.11532 44.22570 31954 ft 470 kts 288°
2026-04-24 19:34 23.13988 44.15988 31961 ft 470 kts 288°
2026-04-24 19:35 23.16254 44.09336 31962 ft 468 kts 285°
2026-04-24 19:35 23.18370 44.02643 31970 ft 468 kts 285°
2026-04-24 19:36 23.20490 43.95946 31972 ft 469 kts 285°
2026-04-24 19:36 23.22613 43.89247 31983 ft 469 kts 285°
2026-04-24 19:37 23.24743 43.82542 31992 ft 469 kts 285°
2026-04-24 19:37 23.26877 43.75833 31997 ft 469 kts 285°
2026-04-24 19:38 23.29013 43.69125 32004 ft 469 kts 285°
2026-04-24 19:38 23.31153 43.62414 32012 ft 469 kts 285°
2026-04-24 19:39 23.33298 43.55708 32018 ft 469 kts 285°
2026-04-24 19:39 23.35450 43.48994 32025 ft 470 kts 285°
2026-04-24 19:40 23.37606 43.42284 32031 ft 470 kts 285°
2026-04-24 19:40 23.39769 43.35568 32031 ft 470 kts 285°
2026-04-24 19:41 23.41935 43.28854 32036 ft 470 kts 285°
2026-04-24 19:41 23.44092 43.22181 32034 ft 470 kts 285°
2026-04-24 19:42 23.46065 43.15413 32038 ft 467 kts 280°
2026-04-24 19:42 23.47271 43.08482 32036 ft 466 kts 278°
2026-04-24 19:43 23.49147 43.01693 32047 ft 470 kts 285°
2026-04-24 19:43 23.51353 42.94966 32049 ft 471 kts 285°
2026-04-24 19:44 23.53562 42.88247 32053 ft 471 kts 285°
2026-04-24 19:44 23.55783 42.81522 32045 ft 471 kts 285°
2026-04-24 19:45 23.58012 42.74798 32042 ft 471 kts 285°
2026-04-24 19:45 23.60241 42.68122 32042 ft 471 kts 285°
2026-04-24 19:46 23.62499 42.61415 32037 ft 471 kts 285°
2026-04-24 19:46 23.64771 42.54717 32031 ft 470 kts 285°
2026-04-24 19:47 23.67056 42.48032 32034 ft 470 kts 285°
2026-04-24 19:47 23.69351 42.41366 32023 ft 469 kts 285°
2026-04-24 19:48 23.71660 42.34708 32025 ft 468 kts 285°
2026-04-24 19:48 23.75137 42.24751 32024 ft 467 kts 285°
2026-04-24 19:49 23.79378 42.12623 32019 ft 467 kts 285°
2026-04-24 19:50 23.84023 41.99374 32017 ft 467 kts 285°
2026-04-24 19:51 23.87522 41.89430 32013 ft 468 kts 285°
2026-04-24 19:52 23.89869 41.82784 31854 ft 471 kts 285°
2026-04-24 19:52 23.91054 41.79431 31614 ft 474 kts 285°
2026-04-24 19:52 23.92243 41.76070 31370 ft 475 kts 285°
2026-04-24 19:52 23.93435 41.72703 31134 ft 476 kts 285°
2026-04-24 19:53 23.94615 41.69375 30903 ft 477 kts 285°
2026-04-24 19:53 23.95817 41.65989 30664 ft 478 kts 285°
2026-04-24 19:53 23.98229 41.59206 30201 ft 479 kts 285°
2026-04-24 19:54 23.99439 41.55804 30030 ft 479 kts 285°
2026-04-24 19:54 24.01860 41.49031 30002 ft 477 kts 285°
2026-04-24 19:55 24.03877 41.43427 30000 ft 475 kts 285°
2026-04-24 19:55 24.06723 41.35568 29997 ft 475 kts 285°
2026-04-24 19:56 24.09164 41.28858 29996 ft 474 kts 285°
2026-04-24 19:56 24.11614 41.22154 29992 ft 474 kts 285°
2026-04-24 19:57 24.14074 41.15458 29992 ft 474 kts 285°
2026-04-24 19:57 24.16547 41.08767 29990 ft 474 kts 285°
2026-04-24 19:58 24.19033 41.02088 29986 ft 474 kts 285°
2026-04-24 19:58 24.21524 40.95447 29987 ft 474 kts 285°
2026-04-24 19:59 24.24048 40.88767 29985 ft 474 kts 285°
2026-04-24 19:59 24.26583 40.82099 29974 ft 474 kts 285°
2026-04-24 20:00 24.29130 40.75446 29965 ft 473 kts 285°
2026-04-24 20:00 24.30414 40.72110 29799 ft 475 kts 285°
2026-04-24 20:00 24.31688 40.68836 29324 ft 459 kts 285°
2026-04-24 20:00 24.32926 40.65665 28826 ft 448 kts 285°
2026-04-24 20:01 24.34155 40.62495 28336 ft 458 kts 285°
2026-04-24 20:01 24.35377 40.59292 27850 ft 463 kts 286°
2026-04-24 20:01 24.36610 40.56021 27381 ft 464 kts 285°
2026-04-24 20:01 24.37266 40.54267 27149 ft 464 kts 285°
2026-04-24 20:02 24.38073 40.52101 26929 ft 462 kts 286°
2026-04-24 20:02 24.39681 40.47772 26370 ft 455 kts 286°
2026-04-24 20:02 24.41028 40.44621 25921 ft 458 kts 291°
2026-04-24 20:02 24.42594 40.41560 25524 ft 457 kts 294°
2026-04-24 20:03 24.44171 40.38577 25091 ft 446 kts 294°
2026-04-24 20:03 24.45757 40.35691 24658 ft 437 kts 296°
2026-04-24 20:03 24.47447 40.32955 24231 ft 428 kts 299°
2026-04-24 20:03 24.49134 40.30316 23820 ft 418 kts 299°
2026-04-24 20:04 24.50782 40.27728 23365 ft 408 kts 298°
2026-04-24 20:04 24.52392 40.25199 22869 ft 400 kts 298°
2026-04-24 20:04 24.53977 40.22729 22379 ft 391 kts 298°
2026-04-24 20:04 24.55535 40.20320 21895 ft 383 kts 298°
2026-04-24 20:05 24.57072 40.17962 21423 ft 376 kts 298°
2026-04-24 20:05 24.58597 40.15638 20966 ft 375 kts 298°
2026-04-24 20:05 24.60126 40.13315 20496 ft 375 kts 298°
2026-04-24 20:05 24.61666 40.11114 20068 ft 376 kts 302°
2026-04-24 20:06 24.63373 40.08936 19628 ft 374 kts 304°
2026-04-24 20:06 24.65093 40.06790 19192 ft 373 kts 304°
2026-04-24 20:06 24.66806 40.04655 18762 ft 372 kts 304°
2026-04-24 20:06 24.68517 40.02527 18333 ft 371 kts 304°
2026-04-24 20:07 24.69645 40.01124 18029 ft 369 kts 304°
2026-04-24 20:07 24.71906 39.98296 17369 ft 365 kts 304°
2026-04-24 20:07 24.73569 39.96207 17046 ft 360 kts 304°
2026-04-24 20:07 24.75224 39.94125 16875 ft 363 kts 304°
2026-04-24 20:08 24.76889 39.92025 16455 ft 364 kts 304°
2026-04-24 20:08 24.78515 39.89966 16010 ft 358 kts 304°
2026-04-24 20:08 24.80134 39.87919 15549 ft 350 kts 304°
2026-04-24 20:08 24.81718 39.85920 15085 ft 343 kts 304°
2026-04-24 20:09 24.83279 39.83970 14651 ft 337 kts 305°
2026-04-24 20:09 24.84908 39.82134 14208 ft 333 kts 309°
2026-04-24 20:09 24.86578 39.80379 13681 ft 331 kts 309°
2026-04-24 20:09 24.88238 39.78625 13009 ft 331 kts 309°
2026-04-24 20:10 24.89887 39.76850 12355 ft 330 kts 309°
2026-04-24 20:10 24.91499 39.75091 12009 ft 319 kts 309°
2026-04-24 20:10 24.93047 39.73407 11678 ft 308 kts 309°
2026-04-24 20:10 24.94295 39.71552 10998 ft 298 kts 290°
2026-04-24 20:11 24.94786 39.69386 10148 ft 296 kts 268°
2026-04-24 20:11 24.94702 39.67105 9271 ft 301 kts 263°
2026-04-24 20:11 24.94108 39.64984 8959 ft 281 kts 236°
2026-04-24 20:11 24.92734 39.63608 8822 ft 259 kts 205°
2026-04-24 20:12 24.91042 39.63277 8678 ft 242 kts 179°
2026-04-24 20:12 24.89408 39.63529 8469 ft 234 kts 171°
2026-04-24 20:12 24.87805 39.63899 8233 ft 237 kts 170°
2026-04-24 20:12 24.86199 39.64242 7976 ft 231 kts 171°
2026-04-24 20:13 24.84649 39.64571 7705 ft 222 kts 170°
2026-04-24 20:13 24.83166 39.64886 7417 ft 212 kts 170°
2026-04-24 20:13 24.81747 39.65185 7143 ft 203 kts 169°
2026-04-24 20:13 24.80385 39.65476 6886 ft 196 kts 168°
2026-04-24 20:14 24.79087 39.65755 6669 ft 184 kts 169°
2026-04-24 20:14 24.77848 39.66010 6447 ft 179 kts 168°
2026-04-24 20:14 24.76657 39.66267 6217 ft 169 kts 166°
2026-04-24 20:14 24.75547 39.66504 5974 ft 160 kts 166°
2026-04-24 20:15 24.74410 39.66754 5810 ft 170 kts 166°
2026-04-24 20:15 24.73267 39.66994 5595 ft 159 kts 166°
2026-04-24 20:15 24.72232 39.67214 5390 ft 147 kts 166°
2026-04-24 20:15 24.71197 39.67435 5207 ft 154 kts 165°
2026-04-24 20:16 24.70608 39.67562 5091 ft 151 kts 165°
2026-04-24 20:17 24.70357 39.67615 5045 ft 149 kts 165°
2026-04-24 20:18 24.69678 39.67761 4920 ft 151 kts 165°
2026-04-24 20:18 24.68294 39.68056 4667 ft 150 kts 165°
2026-04-24 20:18 24.67272 39.68274 4478 ft 150 kts 165°
2026-04-24 20:18 24.66249 39.68492 4281 ft 149 kts 164°
2026-04-24 20:19 24.65684 39.68616 4181 ft 150 kts 165°
2026-04-24 20:21 24.65089 39.68741 4066 ft 147 kts 166°
2026-04-24 20:21 24.64083 39.68956 3880 ft 150 kts 165°
2026-04-24 20:21 24.63107 39.69164 3699 ft 149 kts 165°
2026-04-24 20:22 24.62756 39.69239 3632 ft 146 kts 165°
2026-04-24 20:22 24.61754 39.69454 3390 ft 150 kts 166°
2026-04-24 20:23 24.60704 39.69687 2905 ft 154 kts 167°
2026-04-24 20:23 24.59794 39.69900 2507 ft 151 kts 169°
2026-04-24 20:23 24.58804 39.70127 2336 ft 143 kts 170°
2026-04-24 20:23 24.57790 39.70306 2203 ft 151 kts 172°
2026-04-24 20:24 24.57114 39.70446 2125 ft 144 kts 169°
2026-04-24 20:24 24.56158 39.70644 2120 ft 80 kts 170°
2026-04-24 20:24 24.55738 39.70735 2115 ft 54 kts 168°
2026-04-24 20:24 24.55424 39.70811 2116 ft 27 kts 160°
2026-04-24 20:25 24.55270 39.70910 2115 ft 26 kts 141°
2026-04-24 20:25 24.55221 39.70961 2115 ft 7 kts 129°
2026-04-24 20:25 24.55218 39.71020 2113 ft 9 kts 86°
2026-04-24 20:25 24.55221 39.71047 2113 ft 2 kts 83°
2026-04-24 20:26 24.55225 39.71083 2112 ft 7 kts 83°
2026-04-24 20:26 24.55233 39.71145 2111 ft 9 kts 82°
2026-04-24 20:26 24.55258 39.71202 2111 ft 0 kts 51°
2026-04-24 20:27 24.55267 39.71203 2111 ft 3 kts 24°
2026-04-24 20:27 24.55305 39.71211 2111 ft 8 kts
2026-04-24 20:27 24.55373 39.71202 2111 ft 12 kts 352°
2026-04-24 20:27 24.55472 39.71182 2111 ft 17 kts 348°
2026-04-24 20:28 24.55505 39.71175 2111 ft 2 kts 348°
2026-04-24 20:28 24.55511 39.71174 2111 ft 0 kts 349°
2026-04-24 20:28 24.55513 39.71174 2111 ft 1 kts 356°
2026-04-24 20:28 24.55520 39.71184 2111 ft 2 kts 36°
2026-04-24 20:29 24.55522 39.71188 2111 ft 2 kts 46°
2026-04-24 20:29 24.55533 39.71211 2111 ft 0 kts 64°
2026-04-24 20:29 24.55532 39.71214 2111 ft 0 kts 73°
2026-04-24 20:29 24.55536 39.71228 2111 ft 4 kts 74°
2026-04-24 20:30 24.55539 39.71239 2111 ft 1 kts 75°
2026-04-24 20:30 24.55540 39.71248 2111 ft 0 kts 78°
2026-04-24 20:30 24.55540 39.71251 2111 ft 0 kts 78°
2026-04-24 20:31 24.55541 39.71252 2112 ft 0 kts 78°
2026-04-24 20:31 24.55541 39.71254 2112 ft 1 kts 78°
2026-04-24 20:31 24.55541 39.71255 2112 ft 0 kts 78°
2026-04-24 20:32 24.55541 39.71256 2112 ft 0 kts 78°